Weather History for Bangor, ME

Change the Weather History Date:

Friday, October 4, 2013

  Actual Average Record
Temperature  
Mean Temperature 57 °F 52 °F  
Max Temperature 70 °F 62 °F 78 °F (2001)
Min Temperature 44 °F 41 °F 27 °F (1942)
Degree Days  
Heating Degree Days 8 14  
Month to date heating degree days 19 52  
Since 1 July heating degree days 253 324  
Cooling Degree Days 0 0  
Month to date cooling degree days 0 0  
Year to date cooling degree days 355 317  
Growing Degree Days 6 (Base 50)    
Moisture  
Dew Point 42 °F    
Average Humidity 63    
Maximum Humidity 89    
Minimum Humidity 37    
Precipitation  
Precipitation 0.00 in 0.14 in 1.78 in (1952)
Month to date precipitation 0.00 0.56  
Year to date precipitation 32.35 30.64  
Snow  
Snow 0.00 in 0.00 in 0.00 in (2002)
Month to date snowfall 0.0 0.0  
Since 1 July snowfall 0.0 0.0  
Since 1 September snowfall 0.0 0.0  
Snow Depth 0.00 in    
Sea Level Pressure  
Sea Level Pressure 30.05 in    
Wind  
Wind Speed 3 mph (NW)    
Max Wind Speed 14 mph    
Max Gust Speed 20 mph    
Visibility 10 miles    
Events      
T = Trace of Precipitation, MM = Missing Value Source: NWS Daily Summary

Daily Weather History Graph

Daily Weather History Graph

Search for Another Location

Airport:

Trip Planner

Search our weather history database for the weather conditions in past years. The results will help you decide how hot, cold, wet, or windy it might be!

Date:

Astronomy

Oct. 04, 2013 Rise Set
Actual Time 6:37 AM EDT 6:09 PM EDT
Civil Twilight 6:07 AM EDT 6:39 PM EDT
Nautical Twilight 5:34 AM EDT 7:12 PM EDT
Astronomical Twilight 4:59 AM EDT 7:47 PM EDT
Moon 6:09 AM EDT (10/4) 5:48 PM EDT (10/4)
Length of Visible Light 12h 31m
Length of Day
11h 32m
Waning Crescent, 0% of the Moon is Illuminated
Oct 4
Waning Crescent
Oct 4
New
Oct 11
First Quarter
Oct 18
Full
Oct 26
Last Quarter

Hourly Weather History & Observations

Time (EDT) Temp. Windchill Dew Point Humidity Pressure Visibility Wind Dir Wind Speed Gust Speed Precip Events Conditions
12:53 AM 46.9 °F - 41.0 °F 80% 30.03 in 10.0 mi Calm Calm - N/A   Clear
1:53 AM 45.0 °F 43.5 °F 41.0 °F 86% 30.03 in 10.0 mi WSW 3.5 mph - N/A   Clear
2:53 AM 46.0 °F - 41.0 °F 83% 30.03 in 10.0 mi Calm Calm - N/A   Clear
3:53 AM 45.0 °F - 41.0 °F 86% 30.02 in 10.0 mi Calm Calm - N/A   Clear
4:53 AM 48.0 °F - 44.1 °F 86% 30.03 in 10.0 mi Calm Calm - N/A   Partly Cloudy
5:53 AM 50.0 °F - 45.0 °F 83% 30.04 in 10.0 mi Calm Calm - N/A   Overcast
6:53 AM 50.0 °F - 44.1 °F 80% 30.06 in 10.0 mi WSW 3.5 mph - N/A   Overcast
7:53 AM 52.0 °F - 45.0 °F 77% 30.08 in 10.0 mi Calm Calm - N/A   Overcast
8:53 AM 55.0 °F - 46.0 °F 72% 30.09 in 10.0 mi Calm Calm - N/A   Mostly Cloudy
9:53 AM 59.0 °F - 46.9 °F 64% 30.09 in 10.0 mi NW 5.8 mph - N/A   Mostly Cloudy
10:53 AM 64.0 °F - 46.0 °F 52% 30.07 in 10.0 mi North 4.6 mph - N/A   Mostly Cloudy
11:53 AM 66.9 °F - 46.0 °F 47% 30.05 in 10.0 mi Variable 6.9 mph - N/A   Scattered Clouds
12:53 PM 68.0 °F - 43.0 °F 40% 30.04 in 10.0 mi NNW 10.4 mph 19.6 mph N/A   Scattered Clouds
1:53 PM 68.0 °F - 43.0 °F 40% 30.02 in 10.0 mi WNW 8.1 mph - N/A   Mostly Cloudy
2:53 PM 66.9 °F - 43.0 °F 42% 30.01 in 10.0 mi NW 11.5 mph - N/A   Mostly Cloudy
3:53 PM 68.0 °F - 41.0 °F 37% 30.01 in 10.0 mi NW 5.8 mph - N/A   Mostly Cloudy
4:53 PM 64.9 °F - 41.0 °F 42% 30.01 in 10.0 mi NW 8.1 mph - N/A   Scattered Clouds
5:53 PM 60.1 °F - 41.0 °F 49% 30.03 in 10.0 mi NW 5.8 mph - N/A   Scattered Clouds
6:53 PM 61.0 °F - 37.9 °F 42% 30.04 in 10.0 mi NW 5.8 mph - N/A   Mostly Cloudy
7:53 PM 59.0 °F - 39.9 °F 49% 30.05 in 10.0 mi WNW 3.5 mph - N/A   Mostly Cloudy
8:53 PM 57.9 °F - 42.1 °F 56% 30.07 in 10.0 mi North 3.5 mph - N/A   Mostly Cloudy
9:53 PM 55.0 °F - 42.1 °F 62% 30.09 in 10.0 mi NNE 4.6 mph - N/A   Mostly Cloudy
10:53 PM 52.0 °F - 39.0 °F 61% 30.09 in 10.0 mi NNE 5.8 mph - N/A   Scattered Clouds
11:53 PM 53.1 °F - 37.0 °F 55% 30.09 in 10.0 mi Calm Calm - N/A   Scattered Clouds